NETSAT-4

Last updated on Mon Sep 21 2026 00:03:44 GMT+0000 (Coordinated Universal Time)

1 46504U 20068U 26263.30993171 .00014267 00000+0 28574-3 0 9995 2 46504 97.8612 279.4200 0004267 2.4123 357.7145 15.46860947330467
UTC large
Height (km)
Speed (km/s)
/
Latitude / Longitude
Inclination (degrees)
Orbital Period (minutes)
Azimuth
Elevation
Range (km)
Doppler Factor

Next 0 passes for location: London (51.5072 / 0.1276)

No passes found over London.
NETSAT-4